Weather in Pestovo

Russia / Novgorod Oblast     58°27′56″N   33°15′53″E
temp.,
°C
wind,
m/s
gust,
m/s
humid.,
%
clouds,
%
prec.,
mm/h
press.,
hPa
HPBL,
m
3 march, wed
wed300:00−3nw3109215 0.0 1017451
03:00−2wnw4109516 0.0 1018457
06:00−1wnw4109199 0.1 1016715
09:00−2w5109299 0.1 1016658
12:00−1w51088100 0.0 1014700
15:000w61187100 0.1 1012869
18:000w61285100 0.0 10081031
21:000w61397100 0.3 1005916
4 march, thu
thu400:000wnw51198100 2.8 1002704
03:00−2wnw5118999 4.9 1002809
06:00−4wnw4118863 0.0 1002562
09:00−5nw498831 0.0 1003561
12:00−2nw367853 0.0 1002729
15:00−1nw347368 0.1 10021018
18:00−4nnw228884 0.3 100252
21:00−6nnw259782 0.3 1003145
5 march, fri
fri500:00−6nnw3693100 0.1 1004445
03:00−7wnw3794100 0.1 1005441
06:00−7nw379395 0.1 1007506
09:00−8nw368894 0.2 1008554
12:00−6nw3577100 0.1 1009837
15:00−5nw4677100 0.3 1011885
18:00−7nw3787100 0.2 1012637
21:00−10nnw398580 0.2 1015453
6 march, sat
sat600:00−12nw25920 0.0 1016185
03:00−12wnw22964 0.0 101781
06:00−12w25979 0.0 1017159
09:00−9w379144 0.1 1017401
12:00−6w4677100 0.0 1017817
15:00−5wsw476892 0.1 10141037
18:00−5sw5117494 0.0 10101178
21:00−5sw8168997 0.6 10051365
7 march, sun
sun700:00−4wsw81790100 1.5 9991388
03:00−3wsw81891100 3.3 9931317
06:00−2w91694100 3.2 9911404
09:00−9w4106683 3.6 992736
12:00−6wnw8156197 0.6 9922142
15:00−6wnw588682 1.6 990894
18:00−8w3984100 1.3 9911091
21:00−8n5992100 2.7 994807